�N����,����,�g�[���i���ԁj���x,�g�[�����x,��g�[���i���ցj���x,����
 2005/03/01, 0:00,17.7,50,11.7,12.9
 2005/03/01, 0:15,17.5,49,11.7,13
 2005/03/01, 0:30,17.7,50,11.7,13.1
 2005/03/01, 0:45,17.3,49,11.7,13.2
 2005/03/01, 1:00,17.1,50,11.7,12
 2005/03/01, 1:15,17,51,11.6,12.2
 2005/03/01, 1:30,16.8,51,11.4,12.3
 2005/03/01, 1:45,16.4,51,11.3,12.4
 2005/03/01, 2:00,16.3,51,11.4,13
 2005/03/01, 2:15,15.9,51,11.2,13
 2005/03/01, 2:30,15.8,51,11.1,13.1
 2005/03/01, 2:45,15.7,52,11.1,13.2
 2005/03/01, 3:00,15.4,52,11.1,13.3
 2005/03/01, 3:15,15.3,52,11.1,13.4
 2005/03/01, 3:30,15.1,53,10.9,13.5
 2005/03/01, 3:45,15,53,11,13.5
 2005/03/01, 4:00,14.8,52,10.9,13.6
 2005/03/01, 4:15,14.6,53,10.8,13.7
 2005/03/01, 4:30,14.5,53,10.9,13.7
 2005/03/01, 4:45,14.3,54,10.8,13.8
 2005/03/01, 5:00,14.3,54,10.7,13.9
 2005/03/01, 5:15,14.2,53,11.2,12.3
 2005/03/01, 5:30,14.3,52,11.9,12.5
 2005/03/01, 5:45,14.5,53,12.3,12.6
 2005/03/01, 6:00,14.6,54,12.6,12.7
 2005/03/01, 6:15,14.6,54,12.9,12.8
 2005/03/01, 6:30,14.6,54,13,12.9
 2005/03/01, 6:45,14.9,55,13.3,12.9
 2005/03/01, 7:00,15.2,53,12.8,13
 2005/03/01, 7:15,15.3,53,13,13.1
 2005/03/01, 7:30,16,52,13.5,13.2
 2005/03/01, 7:45,17.9,47,14.4,13.3
 2005/03/01, 8:00,21,38,14.3,13.3
 2005/03/01, 8:15,21.4,36,13.9,13.4
 2005/03/01, 8:30,19.3,40,15,13.5
 2005/03/01, 8:45,18.3,44,15.5,13.5
 2005/03/01, 9:00,17.7,44,15.5,13.6
 2005/03/01, 9:15,17.8,44,14.9,13.7
 2005/03/01, 9:30,17.5,46,14.6,13.7
 2005/03/01, 9:45,17.8,46,14.4,13.8
 2005/03/01,10:00,17.6,45,14.4,13.9
 2005/03/01,10:15,17.4,45,14.2,13.9
 2005/03/01,10:30,16.9,45,14,14
 2005/03/01,10:45,16.6,44,13.7,14.1
 2005/03/01,11:00,16.3,45,13.5,14.1
 2005/03/01,11:15,16,45,13.3,12.6
 2005/03/01,11:30,16,45,13.2,12.8
 2005/03/01,11:45,15.6,45,13,12.9
 2005/03/01,12:00,15.4,45,13,13
 2005/03/01,12:15,15.5,44,12.9,13.1
 2005/03/01,12:30,15.4,44,12.7,13.2
 2005/03/01,12:45,15.4,44,12.7,13.2
 2005/03/01,13:00,15.3,44,12.7,13.3
 2005/03/01,13:15,15.4,44,12.7,13.4
 2005/03/01,13:30,15.4,44,12.8,13.5
 2005/03/01,13:45,15.3,44,12.7,13.5
 2005/03/01,14:00,15.2,44,12.7,13.6
 2005/03/01,14:15,15.5,46,11.9,13.7
 2005/03/01,14:30,15.6,46,11.5,13.7
 2005/03/01,14:45,15.6,45,11.3,13.8
 2005/03/01,15:00,15.5,45,11.2,12.9
 2005/03/01,15:15,15.5,45,11.1,13
 2005/03/01,15:30,15.4,45,11.4,13
 2005/03/01,15:45,15.8,45,11.7,13.1
 2005/03/01,16:00,16,44,11.6,13.2
 2005/03/01,16:15,15.6,43,13.6,13.3
 2005/03/01,16:30,16.2,44,12.3,13.4
 2005/03/01,16:45,16.4,44,12.1,13.4
 2005/03/01,17:00,16.6,44,12.2,13.5
 2005/03/01,17:15,16.8,45,12.1,13.5
 2005/03/01,17:30,16.8,45,12.1,13.6
 2005/03/01,17:45,17,45,12,13.6
 2005/03/01,18:00,16.9,46,12,13.7
 2005/03/01,18:15,16.9,43,12.3,13.8
 2005/03/01,18:30,16.9,44,12.5,13.8
 2005/03/01,18:45,16.8,46,11.9,13.9
 2005/03/01,19:00,16.8,46,11.8,13.9
 2005/03/01,19:15,16.9,46,11.6,12.9
 2005/03/01,19:30,17.1,44,11.4,13
 2005/03/01,19:45,17.2,44,11.4,13.1
 2005/03/01,20:00,17.5,46,11.4,12.2
 2005/03/01,20:15,17.4,45,11.7,11.9
 2005/03/01,20:30,17.5,46,11.5,12
 2005/03/01,20:45,17.7,47,11.7,12.2
 2005/03/01,21:00,17.7,47,11,12.3
 2005/03/01,21:15,17.6,48,10.8,12.4
 2005/03/01,21:30,17.5,48,10.5,12.5
 2005/03/01,21:45,17.6,48,10.4,12.6
 2005/03/01,22:00,17.6,48,10.4,12.7
 2005/03/01,22:15,17.8,48,10.4,12.8
 2005/03/01,22:30,17.8,48,10.4,12.9
 2005/03/01,22:45,17.7,49,10.3,13
 2005/03/01,23:00,17.7,48,10.7,11.6
 2005/03/01,23:15,17.7,48,11,11.8
 2005/03/01,23:30,17.6,48,11.4,11.9
 2005/03/01,23:45,17.5,48,11.4,12
 2005/03/02, 0:00,17.4,49,11.5,12.1
 2005/03/02, 0:15,17.3,49,11.5,12.2
 2005/03/02, 0:30,17.3,49,11.7,12.4
 2005/03/02, 0:45,17.2,49,11.6,12.4
 2005/03/02, 1:00,17.4,49,11.6,12.5
 2005/03/02, 1:15,17.1,47,12.7,12.6
 2005/03/02, 1:30,16.9,48,13.6,12.7
 2005/03/02, 1:45,16.4,49,12.5,12.8
 2005/03/02, 2:00,16.2,49,12.1,12.9
 2005/03/02, 2:15,15.9,49,11.9,13
 2005/03/02, 2:30,15.5,49,11.9,13.1
 2005/03/02, 2:45,15.3,49,11.7,13.2
 2005/03/02, 3:00,15.1,50,11.6,13.2
 2005/03/02, 3:15,14.8,52,11.4,13.3
 2005/03/02, 3:30,14.8,52,11.4,13.4
 2005/03/02, 3:45,14.7,52,11.2,13.5
 2005/03/02, 4:00,14.5,52,11,13.5
 2005/03/02, 4:15,14.3,52,11.1,13.6
 2005/03/02, 4:30,14.2,51,10.9,13.7
 2005/03/02, 4:45,14,51,10.9,13.7
 2005/03/02, 5:00,13.8,49,11.1,14.1
 2005/03/02, 5:15,13.9,50,11.1,14.1
 2005/03/02, 5:30,14.3,52,11,14.2
 2005/03/02, 5:45,14.4,52,10.9,14.2
 2005/03/02, 6:00,14.2,49,10.7,14.2
 2005/03/02, 6:15,14.2,49,10.5,14.3
 2005/03/02, 6:30,14.1,49,10.5,14.3
 2005/03/02, 6:45,14.7,51,10.5,14.3
 2005/03/02, 7:00,15,51,10.7,14.4
 2005/03/02, 7:15,15.2,52,11.4,14.4
 2005/03/02, 7:30,15.5,49,12.1,14.5
 2005/03/02, 7:45,15.6,49,12.4,14.5
 2005/03/02, 8:00,15.8,49,12.4,14.5
 2005/03/02, 8:15,15.9,48,13.3,14.6
 2005/03/02, 8:30,15.9,50,14.3,14.6
 2005/03/02, 8:45,15.6,48,13.3,14.6
 2005/03/02, 9:00,15.9,48,13.3,12.7
 2005/03/02, 9:15,15.7,47,13.1,12.9
 2005/03/02, 9:30,15.8,47,13.3,13
 2005/03/02, 9:45,15.7,47,12.9,13.1
 2005/03/02,10:00,15.8,47,13,13.1
 2005/03/02,10:15,16,46,13.3,13.2
 2005/03/02,10:30,16.2,45,13.3,13.3
 2005/03/02,10:45,16.4,45,13.6,13.4
 2005/03/02,11:00,16.6,45,13.8,13.4
 2005/03/02,11:15,16.6,43,13.7,13.5
 2005/03/02,11:30,16.8,43,13.8,13.6
 2005/03/02,11:45,16.8,43,13.8,13.6
 2005/03/02,12:00,16.6,43,13.7,13.7
 2005/03/02,12:15,16.8,42,13.9,12.2
 2005/03/02,12:30,16.8,43,13.7,12.4
 2005/03/02,12:45,16.6,43,13.4,12.5
 2005/03/02,13:00,16.6,42,13.5,12.6
 2005/03/02,13:15,16.6,41,13.6,12.7
 2005/03/02,13:30,16.5,40,13.4,12.8
 2005/03/02,13:45,16.4,40,13.4,12.9
 2005/03/02,14:00,16.3,41,13.6,13
 2005/03/02,14:15,16.1,41,13.9,13.1
 2005/03/02,14:30,15.9,43,14,13.1
 2005/03/02,14:45,16,44,14,13.2
 2005/03/02,15:00,16,42,13.6,13.3
 2005/03/02,15:15,15.8,42,13.8,13.4
 2005/03/02,15:30,15.6,42,13.7,13.5
 2005/03/02,15:45,15.4,41,13.7,13.5
 2005/03/02,16:00,15.4,41,13.6,13.6
 2005/03/02,16:15,15.4,44,13.7,13.7
 2005/03/02,16:30,15.8,43,13.1,13.8
 2005/03/02,16:45,15.6,43,13.8,13.8
 2005/03/02,17:00,15.7,43,14.2,13.9
 2005/03/02,17:15,16,43,13.5,14.3
 2005/03/02,17:30,16.1,43,13.2,14.3
 2005/03/02,17:45,16.3,43,13.2,14.4
 2005/03/02,18:00,16.5,43,13.1,14.4
 2005/03/02,18:15,16.9,44,13.2,14.5
 2005/03/02,18:30,17,47,13.2,14.6
 2005/03/02,18:45,17,46,13,14.6
 2005/03/02,19:00,17,46,12.8,14.7
 2005/03/02,19:15,17.3,52,12.8,14.7
 2005/03/02,19:30,17.5,53,12.9,14.8
 2005/03/02,19:45,17.8,53,12.8,14.8
 2005/03/02,20:00,17.7,52,12.8,12.7
 2005/03/02,20:15,17.8,53,12.4,13
 2005/03/02,20:30,17.7,50,12.4,13.2
 2005/03/02,20:45,17.8,52,12.4,13.3
 2005/03/02,21:00,17.8,51,12.3,12.8
 2005/03/02,21:15,17.9,51,12.2,12.9
 2005/03/02,21:30,18.1,51,12.1,13
 2005/03/02,21:45,18.5,50,12.2,13
 2005/03/02,22:00,18.2,49,12.3,13.1
 2005/03/02,22:15,18.3,49,12.2,13.2
 2005/03/02,22:30,18.2,48,12.3,13.3
 2005/03/02,22:45,18.2,48,12.2,13.4
 2005/03/02,23:00,18.2,48,12.1,13.4
 2005/03/02,23:15,18.1,47,12.1,13.5
 2005/03/02,23:30,17.8,46,11.9,13.6
 2005/03/02,23:45,17.5,47,12,13.7
 2005/03/03, 0:00,17.3,47,11.9,13.8
 2005/03/03, 0:15,17.1,49,11.8,13.9
 2005/03/03, 0:30,16.9,50,11.8,13.9
 2005/03/03, 0:45,16.7,50,11.6,14
 2005/03/03, 1:00,16.5,50,11.5,14.1
 2005/03/03, 1:15,16.4,50,11.5,14.2
 2005/03/03, 1:30,16.2,50,11.4,14.2
 2005/03/03, 1:45,16,50,11.4,14.3
 2005/03/03, 2:00,15.8,51,11.3,14.4
 2005/03/03, 2:15,15.7,51,11.3,14.4
 2005/03/03, 2:30,15.6,51,11.1,14.5
 2005/03/03, 2:45,15.4,52,11.2,14.5
 2005/03/03, 3:00,15.3,51,11.1,14.6
 2005/03/03, 3:15,15.2,52,11.2,14.6
 2005/03/03, 3:30,15.1,52,11.2,14.7
 2005/03/03, 3:45,15,52,11.1,14.7
 2005/03/03, 4:00,14.9,53,11.1,14.8
 2005/03/03, 4:15,14.8,53,10.9,14.8
 2005/03/03, 4:30,14.8,53,10.9,14.8
 2005/03/03, 4:45,14.6,53,11,14.9
 2005/03/03, 5:00,14.6,53,10.9,12.8
 2005/03/03, 5:15,14.8,53,10.9,13
 2005/03/03, 5:30,14.9,53,10.8,13.1
 2005/03/03, 5:45,14.9,51,11.7,13.2
 2005/03/03, 6:00,15,50,11.3,13.3
 2005/03/03, 6:15,15,50,11.2,13.4
 2005/03/03, 6:30,15,49,11.1,13.4
 2005/03/03, 6:45,15.1,49,11.1,13.5
 2005/03/03, 7:00,15.4,49,12.7,13.6
 2005/03/03, 7:15,15.5,50,13.1,13.7
 2005/03/03, 7:30,15.8,50,13.2,13.7
 2005/03/03, 7:45,16,50,12.7,13.8
 2005/03/03, 8:00,15.9,49,13.5,13.8
 2005/03/03, 8:15,16.5,48,14.2,13.9
 2005/03/03, 8:30,16.5,48,14.5,14
 2005/03/03, 8:45,16.6,47,14.4,14
 2005/03/03, 9:00,16.4,48,14.1,14.1
 2005/03/03, 9:15,16.6,48,14.3,14.1
 2005/03/03, 9:30,16,47,13.9,14.2
 2005/03/03, 9:45,15.8,48,13.7,14.3
 2005/03/03,10:00,15.6,48,13.6,14.3
 2005/03/03,10:15,16.1,45,13.8,14.4
 2005/03/03,10:30,15.5,40,13.8,14.4
 2005/03/03,10:45,15.4,39,13.7,14.5
 2005/03/03,11:00,15.7,38,13.7,14.5
 2005/03/03,11:15,15.5,37,13.8,14.6
 2005/03/03,11:30,14.7,37,13.6,14.6
 2005/03/03,11:45,15.4,38,13.7,14.7
 2005/03/03,12:00,15.9,39,13.7,14.7
 2005/03/03,12:15,16.3,39,13.8,14.8
 2005/03/03,12:30,16.8,40,14.1,14.8
 2005/03/03,12:45,16.9,40,14.2,14.9
 2005/03/03,13:00,16.9,41,14.3,14.9
 2005/03/03,13:15,16.9,42,14.3,15
 2005/03/03,13:30,16.9,42,14.3,15
 2005/03/03,13:45,16.8,43,14.3,15.1
 2005/03/03,14:00,16.8,42,14.3,15.2
 2005/03/03,14:15,16.7,43,14.1,15.2
 2005/03/03,14:30,16.6,44,14.1,15.2
 2005/03/03,14:45,16.6,45,14.2,15.3
 2005/03/03,15:00,16.4,45,14.4,15.3
 2005/03/03,15:15,16.5,45,14.1,15.4
 2005/03/03,15:30,16.3,45,14.1,15.5
 2005/03/03,15:45,16.2,45,14.1,15.5
 2005/03/03,16:00,16.2,45,14.2,15.6
 2005/03/03,16:15,16.2,45,14,15.6
 2005/03/03,16:30,16.1,46,14.1,15.7
 2005/03/03,16:45,16.1,46,14,15.7
 2005/03/03,17:00,16,47,14,15.8
 2005/03/03,17:15,16,48,14.1,15.8
 2005/03/03,17:30,15.9,49,14.1,15.9
 2005/03/03,17:45,16.1,50,14.5,15.9
 2005/03/03,18:00,16.3,53,14.8,16
 2005/03/03,18:15,16.4,52,15,16
 2005/03/03,18:30,16.8,53,14.7,16.1
 2005/03/03,18:45,17.1,53,14.5,16.1
 2005/03/03,19:00,17.5,52,14.3,16.1
 2005/03/03,19:15,17.8,53,14.4,16.2
 2005/03/03,19:30,18.1,54,14.6,16.2
 2005/03/03,19:45,18,53,14.3,13.3
 2005/03/03,20:00,18.2,52,14.3,13.5
 2005/03/03,20:15,18.2,52,14.4,13.6
 2005/03/03,20:30,18.3,52,14.5,13.7
 2005/03/03,20:45,18.4,55,14.4,13.8
 2005/03/03,21:00,18.7,55,14.7,13.9
 2005/03/03,21:15,18.7,54,14.4,14.1
 2005/03/03,21:30,18.6,54,15,14.1
 2005/03/03,21:45,18.9,53,14.4,13.5
 2005/03/03,22:00,19.3,52,14.4,12.5
 2005/03/03,22:15,19.1,52,14.2,12.7
 2005/03/03,22:30,18.9,52,14.1,12.9
 2005/03/03,22:45,18.7,52,14.1,13
 2005/03/03,23:00,18.8,53,14.2,13.1
 2005/03/03,23:15,18.8,55,15.3,13.2
 2005/03/03,23:30,18.8,53,14.6,13.3
 2005/03/03,23:45,18.7,53,14.2,13.4
 2005/03/04, 0:00,18.8,53,14,13.6
 2005/03/04, 0:15,18.3,52,16.1,13.7
 2005/03/04, 0:30,18.2,58,14.5,13.8
 2005/03/04, 0:45,17.9,60,14.2,13.9
 2005/03/04, 1:00,17.6,61,13.9,13.9
 2005/03/04, 1:15,17.4,62,13.8,14
 2005/03/04, 1:30,17.2,63,13.6,14.1
 2005/03/04, 1:45,16.9,63,13.6,14.2
 2005/03/04, 2:00,16.8,63,13.3,14.3
 2005/03/04, 2:15,16.5,64,13.2,14.4
 2005/03/04, 2:30,16.3,64,13.2,14.5
 2005/03/04, 2:45,16.2,64,13.1,14.5
 2005/03/04, 3:00,16.1,65,13,14.6
 2005/03/04, 3:15,16,65,12.8,14.7
 2005/03/04, 3:30,15.8,65,12.9,14.8
 2005/03/04, 3:45,15.7,65,12.8,14.8
 2005/03/04, 4:00,15.5,65,12.7,14.9
 2005/03/04, 4:15,15.4,64,12.8,15
 2005/03/04, 4:30,15.4,64,12.7,13
 2005/03/04, 4:45,15.8,63,12.7,13.3
 2005/03/04, 5:00,15.9,61,13.9,13.5
 2005/03/04, 5:15,16.1,63,13.8,13.6
 2005/03/04, 5:30,16.1,59,13.1,13.7
 2005/03/04, 5:45,15.9,58,12.7,13.8
 2005/03/04, 6:00,15.8,56,12.5,13.8
 2005/03/04, 6:15,15.8,56,12.4,13.9
 2005/03/04, 6:30,15.6,53,13,14
 2005/03/04, 6:45,15.4,52,13.2,14.1
 2005/03/04, 7:00,15.5,55,12.7,14.2
 2005/03/04, 7:15,15.7,55,13.7,12.4
 2005/03/04, 7:30,15.7,56,14,12.6
 2005/03/04, 7:45,15.5,56,13.7,12.7
 2005/03/04, 8:00,15.4,56,13.2,12.9
 2005/03/04, 8:15,15.1,56,13,13
 2005/03/04, 8:30,14.9,56,13,13.1
 2005/03/04, 8:45,14.8,56,12.8,13.2
 2005/03/04, 9:00,14.9,56,12.7,13.3
 2005/03/04, 9:15,15.2,57,12.7,13.4
 2005/03/04, 9:30,15.2,55,12.7,13.4
 2005/03/04, 9:45,15,55,12.6,13.5
 2005/03/04,10:00,15,57,12.5,13.6
 2005/03/04,10:15,15,56,12.4,13.7
 2005/03/04,10:30,15.2,56,12.3,13.8
 2005/03/04,10:45,15.2,56,12.3,13.9
 2005/03/04,11:00,15.2,56,12.2,13.9
 2005/03/04,11:15,15.2,56,12.2,14
 2005/03/04,11:30,15.1,56,12.2,14.1
 2005/03/04,11:45,15,56,12.2,14.2
 2005/03/04,12:00,14.8,55,12.2,14.2
 2005/03/04,12:15,14.5,54,12.2,14.3
 2005/03/04,12:30,14.4,55,12.2,14.3
 2005/03/04,12:45,14.2,55,12.2,14.4
 2005/03/04,13:00,14.2,55,12.2,14.5
 2005/03/04,13:15,14.2,55,12.3,14.5
 2005/03/04,13:30,13.9,55,12.2,14.6
 2005/03/04,13:45,13.8,55,12.2,14.6
 2005/03/04,14:00,13.9,55,12.2,14.7
 2005/03/04,14:15,13.9,55,12.1,14.7
 2005/03/04,14:30,14,55,12.2,14.8
 2005/03/04,14:45,14,54,12.2,14.8
 2005/03/04,15:00,14,54,12.1,14.9
 2005/03/04,15:15,14.3,53,12.1,13.1
 2005/03/04,15:30,14.4,54,12.1,13.3
 2005/03/04,15:45,14.5,53,12.1,13.4
 2005/03/04,16:00,14.5,53,12.2,13.5
 2005/03/04,16:15,14.6,52,12.5,13.6
 2005/03/04,16:30,14.5,50,12.9,13.6
 2005/03/04,16:45,14.8,49,13,12.9
 2005/03/04,17:00,15.1,49,13,13
 2005/03/04,17:15,15.2,49,13.1,13.1
 2005/03/04,17:30,15.3,51,13,13.2
 2005/03/04,17:45,15.8,53,12.7,13
 2005/03/04,18:00,16.2,53,12.7,13.1
 2005/03/04,18:15,16.2,52,12.7,13.1
 2005/03/04,18:30,16.3,52,12.8,13.3
 2005/03/04,18:45,16.4,52,12.8,13.3
 2005/03/04,19:00,16.6,53,12.7,13.4
 2005/03/04,19:15,16.8,52,12.7,13.5
 2005/03/04,19:30,17,55,12.7,13.6
 2005/03/04,19:45,17.3,57,12.7,13.7
 2005/03/04,20:00,17.2,53,12.7,13.7
 2005/03/04,20:15,17.3,53,12.7,13.8
 2005/03/04,20:30,17.4,53,12.7,12.7
 2005/03/04,20:45,17.2,52,12.7,11.9
 2005/03/04,21:00,17.1,50,12.8,12.1
 2005/03/04,21:15,17.3,49,12.7,11.6
 2005/03/04,21:30,17.1,47,12.9,10.7
 2005/03/04,21:45,16.9,48,12.5,11
 2005/03/04,22:00,16.6,47,12.5,11.2
 2005/03/04,22:15,16.9,50,12.3,11.2
 2005/03/04,22:30,16.9,49,12.2,11.1
 2005/03/04,22:45,16.9,50,12.1,11.2
 2005/03/04,23:00,17,50,12.2,11.4
 2005/03/04,23:15,16.9,52,12.3,11.5
 2005/03/04,23:30,16.8,52,12.2,11.6
 2005/03/04,23:45,16.7,52,12.2,11.8
 2005/03/05, 0:00,16.7,52,12.1,11.9
 2005/03/05, 0:15,16.6,52,12.2,12
 2005/03/05, 0:30,16.5,52,12.1,12.1
 2005/03/05, 0:45,16.4,52,11.9,12.3
 2005/03/05, 1:00,16.5,52,12,12
 2005/03/05, 1:15,16.1,53,11.8,12.1
 2005/03/05, 1:30,16,53,11.6,12.2
 2005/03/05, 1:45,15.7,53,11.7,12.3
 2005/03/05, 2:00,15.6,53,11.4,12.4
 2005/03/05, 2:15,15.5,53,11.4,12.5
 2005/03/05, 2:30,15.5,53,11.3,12.6
 2005/03/05, 2:45,15,52,11.2,12.7
 2005/03/05, 3:00,14.8,53,11.2,12
 2005/03/05, 3:15,14.6,53,11.2,12.1
 2005/03/05, 3:30,14.3,54,11.2,12.2
 2005/03/05, 3:45,14.2,54,11.1,12.3
 2005/03/05, 4:00,14,54,11.1,12.4
 2005/03/05, 4:15,13.9,54,10.9,12.5
 2005/03/05, 4:30,13.8,54,10.9,12.6
 2005/03/05, 4:45,13.7,54,10.9,12.7
 2005/03/05, 5:00,13.5,54,10.8,12.8
 2005/03/05, 5:15,13.5,54,10.9,12.9
 2005/03/05, 5:30,13.4,55,10.8,13
 2005/03/05, 5:45,13.2,55,10.7,13
 2005/03/05, 6:00,13.2,55,10.8,13.1
 2005/03/05, 6:15,13.1,55,10.7,13.2
 2005/03/05, 6:30,13,55,10.5,13.2
 2005/03/05, 6:45,13.2,55,10.6,12.3
 2005/03/05, 7:00,13.7,55,10.5,12.4
 2005/03/05, 7:15,13.8,54,10.6,12
 2005/03/05, 7:30,14,55,10.6,12.1
 2005/03/05, 7:45,14.3,54,10.5,12.2
 2005/03/05, 8:00,14.5,54,10.6,12.3
 2005/03/05, 8:15,14.6,54,10.7,12.4
 2005/03/05, 8:30,14.9,53,10.7,12.2
 2005/03/05, 8:45,15.1,52,10.9,12.3
 2005/03/05, 9:00,15.4,53,11.1,12.4
 2005/03/05, 9:15,15.3,51,11.5,12.5
 2005/03/05, 9:30,16.1,52,11.2,12.6
 2005/03/05, 9:45,16.4,52,11.4,12.1
 2005/03/05,10:00,16.6,52,11.8,11.6
 2005/03/05,10:15,16.4,53,11.8,11.8
 2005/03/05,10:30,16,53,12.4,11.9
 2005/03/05,10:45,16.2,54,12.1,12
 2005/03/05,11:00,16.5,54,12,12.1
 2005/03/05,11:15,16.5,55,11.9,12.2
 2005/03/05,11:30,16.5,55,11.7,12.3
 2005/03/05,11:45,16.7,56,11.7,12.4
 2005/03/05,12:00,16.8,55,11.6,12.5
 2005/03/05,12:15,17,54,11.7,12.6
 2005/03/05,12:30,17.4,53,11.7,12.7
 2005/03/05,12:45,17.8,53,11.8,12.8
 2005/03/05,13:00,17.8,51,11.7,12.9
 2005/03/05,13:15,17.8,49,11.5,13
 2005/03/05,13:30,17.7,46,11.6,13.1
 2005/03/05,13:45,17.6,46,11.5,13.2
 2005/03/05,14:00,17.7,47,11.5,13.3
 2005/03/05,14:15,17.8,45,11.5,13.3
 2005/03/05,14:30,18,48,11.6,12.4
 2005/03/05,14:45,18.3,48,11.6,12.5
 2005/03/05,15:00,18.7,48,11.6,12.2
 2005/03/05,15:15,18.7,50,11.6,12.5
 2005/03/05,15:30,18.9,50,11.8,12.3
 2005/03/05,15:45,18.5,50,12,12.5
 2005/03/05,16:00,18.3,49,12,12.2
 2005/03/05,16:15,18.4,50,11.9,12.4
 2005/03/05,16:30,18.2,49,12,12.5
 2005/03/05,16:45,18.1,48,12.1,12.6
 2005/03/05,17:00,18,48,12.1,12.7
 2005/03/05,17:15,17.8,47,12.1,12.8
 2005/03/05,17:30,17.8,47,12,12.9
 2005/03/05,17:45,17.6,46,12.1,13
 2005/03/05,18:00,17.5,47,12,13.1
 2005/03/05,18:15,17.3,44,12.2,12.3
 2005/03/05,18:30,17.5,50,12,12.4
 2005/03/05,18:45,17.3,47,11.8,12.5
 2005/03/05,19:00,17.4,50,11.7,12.6
 2005/03/05,19:15,17.5,51,11.7,12.7
 2005/03/05,19:30,17.7,52,11.6,12.8
 2005/03/05,19:45,17.7,52,11.6,12.9
 2005/03/05,20:00,17.7,52,11.4,12.4
 2005/03/05,20:15,17.9,52,11.5,12.5
 2005/03/05,20:30,17.8,52,11.5,12.6
 2005/03/05,20:45,18,52,11.4,12.7
 2005/03/05,21:00,18,51,11.4,12.8
 2005/03/05,21:15,18.1,52,11.5,12.9
 2005/03/05,21:30,18,52,11.4,13
 2005/03/05,21:45,18,52,11.5,13.1
 2005/03/05,22:00,18.3,54,11.5,13.2
 2005/03/05,22:15,18.1,52,11.5,13.3
 2005/03/05,22:30,17.9,53,11.4,13.4
 2005/03/05,22:45,17.7,53,11.9,12.3
 2005/03/05,23:00,17.4,53,11.8,10.9
 2005/03/05,23:15,17.2,54,11.9,11.2
 2005/03/05,23:30,17.3,54,11.8,11.4
 2005/03/05,23:45,17.3,55,11.9,11.8
 2005/03/06, 0:00,17.1,55,12.1,11.9
 2005/03/06, 0:15,17.1,54,11.9,12
 2005/03/06, 0:30,16.9,54,11.9,12.1
 2005/03/06, 0:45,16.6,55,11.8,12.2
 2005/03/06, 1:00,16.4,54,11.8,12.3
 2005/03/06, 1:15,16.1,55,11.7,11.8
 2005/03/06, 1:30,15.7,55,11.6,11.9
 2005/03/06, 1:45,15.5,55,11.7,12
 2005/03/06, 2:00,15.4,55,11.5,12.2
 2005/03/06, 2:15,15.1,55,11.4,12.3
 2005/03/06, 2:30,14.9,55,11.4,12.4
 2005/03/06, 2:45,14.7,55,11.4,12.5
 2005/03/06, 3:00,14.6,55,11.3,12.6
 2005/03/06, 3:15,14.4,56,11.1,12.7
 2005/03/06, 3:30,14.3,56,11.2,12.8
 2005/03/06, 3:45,13.9,55,11.1,12.9
 2005/03/06, 4:00,13.9,55,11,13
 2005/03/06, 4:15,13.8,55,11.1,13.1
 2005/03/06, 4:30,13.5,55,11,13.2
 2005/03/06, 4:45,13.4,54,11,13.2
 2005/03/06, 5:00,13.2,55,11,13.3
 2005/03/06, 5:15,13.2,55,11,13.4
 2005/03/06, 5:30,13,55,10.9,13.4
 2005/03/06, 5:45,13,55,10.8,13.5
 2005/03/06, 6:00,12.9,55,10.7,13.6
 2005/03/06, 6:15,12.8,55,10.7,13.6
 2005/03/06, 6:30,12.6,55,10.7,13.7
 2005/03/06, 6:45,12.5,55,10.6,13.7
 2005/03/06, 7:00,12.4,55,10.7,13.8
 2005/03/06, 7:15,12.3,55,10.5,13.8
 2005/03/06, 7:30,12.3,55,10.5,13.9
 2005/03/06, 7:45,12.4,55,10.5,14
 2005/03/06, 8:00,12.5,55,10.5,14
 2005/03/06, 8:15,12.6,55,10.5,14.1
 2005/03/06, 8:30,12.5,54,10.5,11.8
 2005/03/06, 8:45,12.7,57,10.5,12.2
 2005/03/06, 9:00,13,57,10.7,12.3
 2005/03/06, 9:15,13.7,56,11,12.5
 2005/03/06, 9:30,14.4,56,11.2,12.5
 2005/03/06, 9:45,15.5,54,11.8,12.6
 2005/03/06,10:00,16.2,53,11.1,12.7
 2005/03/06,10:15,16.5,52,11,10.8
 2005/03/06,10:30,16.6,52,10.8,11
 2005/03/06,10:45,16.5,52,10.6,11.2
 2005/03/06,11:00,16.6,51,10.6,11.3
 2005/03/06,11:15,16.9,51,10.7,11.3
 2005/03/06,11:30,17.4,51,10.7,11.4
 2005/03/06,11:45,18.1,49,10.8,11.5
 2005/03/06,12:00,18.2,49,11.5,11.6
 2005/03/06,12:15,17.9,56,10.9,11.7
 2005/03/06,12:30,17.8,54,11.2,10.9
 2005/03/06,12:45,18,55,10.8,11
 2005/03/06,13:00,17.9,56,10.7,11.2
 2005/03/06,13:15,17.9,57,10.8,11.3
 2005/03/06,13:30,18.1,54,10.7,11.4
 2005/03/06,13:45,18.1,53,10.8,11.5
 2005/03/06,14:00,18.1,55,10.8,11.7
 2005/03/06,14:15,18.2,55,11,11.8
 2005/03/06,14:30,18.1,56,11,11.9
 2005/03/06,14:45,18,53,10.9,12
 2005/03/06,15:00,18,52,11.1,12.1
 2005/03/06,15:15,17.9,46,11.1,12.2
 2005/03/06,15:30,17.8,45,11.1,12.3
 2005/03/06,15:45,17.8,45,11.3,12.4
 2005/03/06,16:00,17.7,45,11.4,12.5
 2005/03/06,16:15,17.7,49,11.4,12.6
 2005/03/06,16:30,17.9,47,11.5,12.7
 2005/03/06,16:45,18,49,11.6,12.8
 2005/03/06,17:00,18.1,50,11.6,12.9
 2005/03/06,17:15,18.1,50,11.5,13.3
 2005/03/06,17:30,18.4,49,11.5,13.3
 2005/03/06,17:45,18.4,48,11.4,13.4
 2005/03/06,18:00,18.7,49,11.9,13.5
 2005/03/06,18:15,18.6,49,11.4,12.8
 2005/03/06,18:30,18.6,48,11.1,12.1
 2005/03/06,18:45,18.6,49,11,12.2
 2005/03/06,19:00,18.6,49,10.9,12.3
 2005/03/06,19:15,18.5,51,11,12.4
 2005/03/06,19:30,18.3,50,10.8,11.7
 2005/03/06,19:45,18.2,51,10.7,11.8
 2005/03/06,20:00,17.9,48,10.6,11.9
 2005/03/06,20:15,17.8,47,10.6,12.1
 2005/03/06,20:30,17.7,46,10.6,12.2
 2005/03/06,20:45,17.6,50,10.6,12.3
 2005/03/06,21:00,17.6,50,10.8,12
 2005/03/06,21:15,17.5,51,10.8,12.1
 2005/03/06,21:30,17.6,50,10.8,12.2
 2005/03/06,21:45,17.8,51,11,12.3
 2005/03/06,22:00,17.8,51,10.9,12.4
 2005/03/06,22:15,17.8,51,11.1,12.5
 2005/03/06,22:30,17.6,52,11.7,12.6
 2005/03/06,22:45,17.4,52,11.5,12.7
 2005/03/06,23:00,17.2,53,11.8,11.3
 2005/03/06,23:15,17.2,52,12.4,11.3
 2005/03/06,23:30,17.1,53,12.1,10.7
 2005/03/06,23:45,16.9,52,12.1,10.8
 2005/03/07, 0:00,16.5,53,12,11
 2005/03/07, 0:15,16.5,53,11.9,11.1
 2005/03/07, 0:30,16.4,55,11.8,11.3
 2005/03/07, 0:45,16.2,54,11.7,11.4
 2005/03/07, 1:00,15.9,54,11.6,11.5
 2005/03/07, 1:15,15.6,54,11.6,11.7
 2005/03/07, 1:30,15.5,54,11.4,11.8
 2005/03/07, 1:45,15.3,54,11.4,11.9
 2005/03/07, 2:00,15.1,54,11.4,12
 2005/03/07, 2:15,14.8,54,11.3,12.1
 2005/03/07, 2:30,14.6,54,11.2,12.3
 2005/03/07, 2:45,14.3,54,11.1,12.4
 2005/03/07, 3:00,14.2,54,11.2,12.4
 2005/03/07, 3:15,14,54,11,12.6
 2005/03/07, 3:30,13.8,54,11,12.7
 2005/03/07, 3:45,13.7,54,10.9,12.7
 2005/03/07, 4:00,13.4,54,10.9,12.8
 2005/03/07, 4:15,13.3,54,10.9,11.6
 2005/03/07, 4:30,13.2,55,10.7,11.8
 2005/03/07, 4:45,13,55,10.8,11.9
 2005/03/07, 5:00,13,55,10.6,12.1
 2005/03/07, 5:15,12.9,55,10.5,12.2
 2005/03/07, 5:30,12.7,54,10.5,12.3
 2005/03/07, 5:45,12.5,54,10.5,12.3
 2005/03/07, 6:00,12.5,54,10.4,12.4
 2005/03/07, 6:15,12.4,54,10.3,12.5
 2005/03/07, 6:30,12.4,55,10.4,11.9
 2005/03/07, 6:45,12.7,55,10.3,12.6
 2005/03/07, 7:00,13.1,54,10.1,12.6
 2005/03/07, 7:15,13.5,53,10.8,11.9
 2005/03/07, 7:30,15,55,11.4,12
 2005/03/07, 7:45,15.5,54,11.6,12.1
 2005/03/07, 8:00,16.1,54,11.2,11.4
 2005/03/07, 8:15,15.8,53,11.6,11.5
 2005/03/07, 8:30,15.1,53,12.8,11.6
 2005/03/07, 8:45,14.8,54,12.7,11.8
 2005/03/07, 9:00,14.8,54,12.8,11.9
 2005/03/07, 9:15,14.8,54,12.9,12
 2005/03/07, 9:30,15,53,13,12.1
 2005/03/07, 9:45,15.1,53,13.1,12.2
 2005/03/07,10:00,15.2,53,13.2,12.2
 2005/03/07,10:15,15.3,52,13.3,12.3
 2005/03/07,10:30,15.4,52,13.5,12.4
 2005/03/07,10:45,15.1,52,13.5,12.5
 2005/03/07,11:00,15.2,52,13.5,12.6
 2005/03/07,11:15,15.4,51,13.7,12.7
 2005/03/07,11:30,15.5,51,13.8,12.7
 2005/03/07,11:45,15.4,51,14.1,12.8
 2005/03/07,12:00,15.7,50,14.1,12.9
 2005/03/07,12:15,15.7,50,14.2,13
 2005/03/07,12:30,15.7,50,14.2,13.1
 2005/03/07,12:45,15.7,49,14.2,13.1
 2005/03/07,13:00,15.7,49,14.3,13.2
 2005/03/07,13:15,15.8,49,14.3,13.3
 2005/03/07,13:30,15.8,49,14.3,13.3
 2005/03/07,13:45,15.7,48,14.3,13.4
 2005/03/07,14:00,15.7,48,14.2,13.5
 2005/03/07,14:15,15.8,48,14.2,12.2
 2005/03/07,14:30,15.8,49,14.3,12.4
 2005/03/07,14:45,15.9,49,14.2,12.5
 2005/03/07,15:00,16,49,14.3,12.6
 2005/03/07,15:15,16.2,50,14.3,12.7
 2005/03/07,15:30,16.3,49,14.4,12.8
 2005/03/07,15:45,16.4,48,14.4,12.9
 2005/03/07,16:00,16.5,47,14.6,13
 2005/03/07,16:15,16.9,47,14.2,12.4
 2005/03/07,16:30,17.3,47,13.7,12.5
 2005/03/07,16:45,17.4,46,14.1,12.6
 2005/03/07,17:00,17.6,46,14.1,12.7
 2005/03/07,17:15,17.8,47,13.8,12.9
 2005/03/07,17:30,17.8,47,14.7,12.9
 2005/03/07,17:45,18.1,49,14.7,13
 2005/03/07,18:00,18.2,47,14.5,13
 2005/03/07,18:15,18.1,45,14.5,13.1
 2005/03/07,18:30,18.1,45,14.4,13.2
 2005/03/07,18:45,18.3,45,14.2,13.3
 2005/03/07,19:00,18.5,44,14,13.4
 2005/03/07,19:15,18.7,44,13.7,13.5
 2005/03/07,19:30,18.6,42,13.6,13.6
 2005/03/07,19:45,18.7,41,13.4,13.7